Time_in_sec,Mx,My,Mz
1326901919.76546955,-0.73236674,-0.42793581,-0.50453979
1326901919.82450819,-0.73367840,-0.42911986,-0.50309819
1326901919.86549926,-0.73258221,-0.42569607,-0.50356442
1326901919.91756439,-0.73267877,-0.42792228,-0.50555938
1326901919.96521950,-0.73063856,-0.42841613,-0.50557137
1326901920.01656032,-0.73275769,-0.42889825,-0.50254881
1326901920.07765746,-0.73256481,-0.42806211,-0.50354689
1326901920.11655307,-0.73215520,-0.42580372,-0.50504470
1326901920.17754555,-0.73129934,-0.42828694,-0.50598383
1326901920.21668267,-0.73108107,-0.42523399,-0.50398815
1326901920.27688265,-0.73341346,-0.42839265,-0.50509429
1326901920.32558084,-0.73156363,-0.42428878,-0.50339407
1326901920.36552691,-0.73157394,-0.42490044,-0.50138503
1326901920.42465019,-0.73376679,-0.42957556,-0.50472903
1326901920.46513343,-0.73328030,-0.42643258,-0.50021291
1326901920.52557874,-0.73364067,-0.43137163,-0.50270438
1326901920.57750630,-0.73194587,-0.42643425,-0.50139433
1326901920.61758780,-0.73104435,-0.42455506,-0.50098294
1326901920.66457295,-0.73196357,-0.43066087,-0.50449902
1326901920.72552872,-0.73414826,-0.43278441,-0.50284714
1326901920.77670169,-0.73327953,-0.42749596,-0.50033075
1326901920.82556319,-0.73180449,-0.42348480,-0.50078070
1326901920.86550426,-0.73133045,-0.42527825,-0.49936399
1326901920.91826987,-0.73322684,-0.43064982,-0.50431645
1326901920.96452999,-0.73093617,-0.42949152,-0.50420117
1326901921.01659012,-0.73222834,-0.43044302,-0.50238413
1326901921.06564283,-0.73161149,-0.42843741,-0.50249028
1326901921.11757541,-0.73275679,-0.42901653,-0.50254792
1326901921.16495156,-0.73159462,-0.42784992,-0.50211751
1326901921.22463346,-0.73202741,-0.43175781,-0.50123608
1326901921.26479697,-0.73241019,-0.42797339,-0.50078189
1326901921.32475853,-0.73171455,-0.42891327,-0.50211650
1326901921.37753487,-0.73243028,-0.42619753,-0.50092077
1326901921.41749525,-0.73133606,-0.42442730,-0.50162619
1326901921.47651386,-0.73192376,-0.43031403,-0.50374728
1326901921.52549791,-0.73028946,-0.42491552,-0.50119042
1326901921.57710147,-0.73203886,-0.42443115,-0.50053602
1326901921.61756325,-0.73164761,-0.42360985,-0.50027007
1326901921.67661977,-0.73085147,-0.43045273,-0.50281125
1326901921.72529817,-0.72981459,-0.42385092,-0.50167364
1326901921.76566219,-0.73284572,-0.42573765,-0.49919170
1326901921.82552958,-0.73110002,-0.43139639,-0.50281799
1326901921.87755322,-0.73102862,-0.42573944,-0.50084847
1326901921.92866421,-0.73151368,-0.42349428,-0.50013834
1326901921.96467018,-0.73128629,-0.42552292,-0.49860790
1326901922.02566886,-0.73345464,-0.43162036,-0.50168991
1326901922.07657456,-0.73205847,-0.42560878,-0.50103021
1326901922.11542273,-0.72972989,-0.42481214,-0.50028366
1326901922.17489266,-0.73091871,-0.43091249,-0.50406498
1326901922.22556591,-0.73070145,-0.42492884,-0.49945790
1326901922.27658796,-0.73142993,-0.42528224,-0.49886799
1326901922.32550550,-0.72998685,-0.42268264,-0.50006175
1326901922.37759352,-0.73224735,-0.42313784,-0.49955368
1326901922.42463374,-0.73020440,-0.42304152,-0.49944434
1326901922.48154902,-0.73227721,-0.42492715,-0.49803877
1326901922.52543592,-0.73029506,-0.42328349,-0.49882087
1326901922.57751083,-0.73226023,-0.42339459,-0.49754727
1326901922.61657143,-0.73051345,-0.42352405,-0.49820426
1326901922.67655969,-0.73312163,-0.43055168,-0.50243151
1326901922.72965813,-0.73099554,-0.42255604,-0.49986634
1326901922.77755666,-0.73195726,-0.42506027,-0.49689263
1326901922.82455683,-0.72992420,-0.42352152,-0.49904987
1326901922.87653804,-0.73198974,-0.42351833,-0.49728116
1326901922.92452765,-0.73100209,-0.42175075,-0.49761635
1326901922.97754526,-0.73218530,-0.42494461,-0.49640438
1326901923.02452493,-0.73052573,-0.42281291,-0.49833524
1326901923.07658672,-0.73192555,-0.42256254,-0.49828705
1326901923.11752772,-0.73049051,-0.42376471,-0.49782535
1326901923.17662740,-0.73159039,-0.42938650,-0.50223184
1326901923.22456551,-0.73056728,-0.42292315,-0.49908870
1326901923.27712893,-0.73264199,-0.42551720,-0.49780363
1326901923.32465005,-0.72920501,-0.42295301,-0.49751115
1326901923.37754011,-0.73235738,-0.42266729,-0.49918690
1326901923.42603660,-0.73065621,-0.42340168,-0.49846348
1326901923.47659373,-0.73201603,-0.42483574,-0.49564403
1326901923.52591825,-0.72977823,-0.42224976,-0.49629360
1326901923.57766128,-0.73226905,-0.42315665,-0.49767473
1326901923.61721134,-0.72938377,-0.42379183,-0.49626157
1326901923.67751789,-0.73177356,-0.43057889,-0.50110537
1326901923.72467256,-0.73100495,-0.42328599,-0.49785641
1326901923.77751756,-0.73130441,-0.42506984,-0.49660674
1326901923.82451129,-0.73122740,-0.42402127,-0.49510592
1326901923.87661481,-0.73255008,-0.42255834,-0.49807006
1326901923.92496490,-0.73002714,-0.42305231,-0.49855739
1326901923.97764397,-0.73178428,-0.42353448,-0.49589133
1326901924.02558112,-0.73067886,-0.42424726,-0.49670413
1326901924.07750940,-0.73098743,-0.42470697,-0.49772018
1326901924.11763597,-0.73152393,-0.42410591,-0.49812928
1326901924.17750835,-0.73220837,-0.43018761,-0.50426483
1326901924.22452450,-0.72939378,-0.42329445,-0.49864691
1326901924.27665567,-0.73154873,-0.42485210,-0.49712548
1326901924.32554102,-0.73141766,-0.42329577,-0.49913421
1326901924.37654209,-0.73135579,-0.42307132,-0.49800470
1326901924.42897940,-0.73002130,-0.42321408,-0.49692941
1326901924.47754240,-0.73329961,-0.42507616,-0.49659166
1326901924.52859807,-0.73182631,-0.42269623,-0.49953634
1326901924.57765102,-0.73008686,-0.42485514,-0.49829981
1326901924.61756492,-0.73136199,-0.42318824,-0.49812952
1326901924.67655277,-0.73261684,-0.42986518,-0.50316256
1326901924.72550488,-0.73027945,-0.42380136,-0.49706450
1326901924.77757192,-0.73189718,-0.42582238,-0.49438071
1326901924.82959628,-0.73144281,-0.42284146,-0.49725917
1326901924.87790442,-0.73225832,-0.42390975,-0.49604255
1326901924.92863059,-0.73135096,-0.42285892,-0.49562511
1326901924.97751164,-0.73155618,-0.42392874,-0.49487683
1326901925.02473950,-0.73058891,-0.42133093,-0.49546948
1326901925.07758331,-0.73197871,-0.42318895,-0.49477622
1326901925.11756420,-0.73201299,-0.42141038,-0.49516654
1326901925.17662501,-0.72980523,-0.43001875,-0.50000060
1326901925.22457075,-0.73078972,-0.42365840,-0.49633822
1326901925.27750540,-0.73291516,-0.42520252,-0.49355924
1326901925.32472920,-0.73055232,-0.42237797,-0.49721447
1326901925.37604570,-0.73238868,-0.42355356,-0.49605206
1326901925.42555714,-0.73097229,-0.42321652,-0.49572754
1326901925.47656703,-0.73244309,-0.42392045,-0.49479935
1326901925.52552533,-0.72921646,-0.42183524,-0.49376306
1326901925.57654285,-0.73127192,-0.42285436,-0.49348718
1326901925.61756039,-0.73170912,-0.42319438,-0.49451101
1326901925.68167353,-0.73246622,-0.43091616,-0.50214297
1326901925.72456574,-0.73072302,-0.42400259,-0.49746022
1326901925.77752090,-0.73184592,-0.42484519,-0.49488282
1326901925.82453322,-0.73133433,-0.42388278,-0.49699265
1326901925.87715387,-0.73064798,-0.42299616,-0.49445856
1326901925.92549038,-0.73059762,-0.42312387,-0.49357781
1326901925.97662330,-0.73214257,-0.42334124,-0.49391007
1326901926.02463651,-0.73134118,-0.42227024,-0.49537811
1326901926.07753444,-0.73075819,-0.42441544,-0.49432924
1326901926.11667442,-0.73134315,-0.42392340,-0.49561724
1326901926.17751336,-0.73083186,-0.42860755,-0.50069445
1326901926.22490120,-0.72998756,-0.42203939,-0.49618396
1326901926.27649546,-0.73333114,-0.42568362,-0.49496013
1326901926.32551217,-0.73186445,-0.42249861,-0.49565530
1326901926.37651801,-0.73200715,-0.42412862,-0.49539784
1326901926.42476034,-0.73092371,-0.42377400,-0.49646997
1326901926.48568821,-0.73161262,-0.42567068,-0.49536580
1326901926.52449656,-0.73089343,-0.42212585,-0.49572790
1326901926.57750940,-0.73182034,-0.42246440,-0.49640208
1326901926.61736941,-0.73003113,-0.42260194,-0.49630478
1326901926.67653394,-0.73220193,-0.42818052,-0.50390255
1326901926.72554827,-0.73086816,-0.42163518,-0.49748462
1326901926.77712059,-0.73208773,-0.42564908,-0.49702084
1326901926.82556820,-0.73122519,-0.42423505,-0.49736029
1326901926.87753940,-0.73269868,-0.42269406,-0.49619713
1326901926.92505121,-0.72935247,-0.42157316,-0.49615303
1326901926.97633481,-0.73156697,-0.42534399,-0.49524343
1326901927.02514076,-0.73020762,-0.42204335,-0.49556926
1326901927.07762337,-0.72948128,-0.42334321,-0.49639818
1326901927.11750722,-0.72948486,-0.42381498,-0.49652040
1326901927.17689013,-0.73286766,-0.42856407,-0.50293458
1326901927.22486162,-0.73099273,-0.42129996,-0.49812287
1326901927.27752542,-0.73066056,-0.42511976,-0.49494559
1326901927.32557750,-0.73090202,-0.42308888,-0.49672708
1326901927.37751031,-0.73157400,-0.42236698,-0.49726957
1326901927.42476249,-0.73093510,-0.42251495,-0.49497861
1326901927.47755480,-0.73066491,-0.42452836,-0.49494997
1326901927.52972126,-0.73137105,-0.42108345,-0.49576393
1326901927.56553888,-0.73008877,-0.42180684,-0.49568981
1326901927.61653757,-0.73183793,-0.43072551,-0.50073379
1326901927.66551638,-0.73092425,-0.42861289,-0.50007284
1326901927.71653628,-0.73237556,-0.42908430,-0.49876934
1326901927.76965070,-0.73197395,-0.42670682,-0.50039333
1326901927.81754971,-0.73195463,-0.42741916,-0.50013667
1326901927.86569667,-0.73215389,-0.42728606,-0.50140142
1326901927.92550755,-0.73154396,-0.42636552,-0.49949545
1326901927.96647310,-0.73120785,-0.42687896,-0.49583986
1326901928.01662874,-0.73262131,-0.42943773,-0.49865481
1326901928.06952763,-0.73136997,-0.42777008,-0.50110519
1326901928.11875868,-0.73158044,-0.42813024,-0.50036216
1326901928.16558480,-0.73229730,-0.42610058,-0.50154275
1326901928.21749616,-0.73218018,-0.42860317,-0.49976465
1326901928.26862144,-0.73022878,-0.42955256,-0.50140721
1326901928.31750417,-0.73083436,-0.42730784,-0.50057840
1326901928.36458945,-0.73107827,-0.42695299,-0.50034338
1326901928.41756868,-0.73221910,-0.42906821,-0.50051528
1326901928.46567225,-0.73345131,-0.42738655,-0.50184649
1326901928.51606655,-0.73103350,-0.42920557,-0.49982399
1326901928.56451511,-0.73073751,-0.42694902,-0.50107688
1326901928.61751842,-0.73131609,-0.42742601,-0.50010228
1326901928.66574097,-0.73290068,-0.42704529,-0.50106740
1326901928.71663022,-0.73042482,-0.42802566,-0.50017536
1326901928.76560187,-0.73214495,-0.42657909,-0.50115526
1326901928.81657100,-0.73198736,-0.42776725,-0.50076258
1326901928.86551285,-0.73007679,-0.42613333,-0.50054580
1326901928.91656709,-0.72916794,-0.42720878,-0.50036401
1326901928.96544528,-0.73251843,-0.42693114,-0.50104761
1326901929.01748967,-0.73213029,-0.42953461,-0.50125909
1326901929.06567931,-0.73128098,-0.42634678,-0.50161159
1326901929.11751413,-0.73210388,-0.42727265,-0.50277722
1326901929.16611743,-0.73105925,-0.42752421,-0.50234324
1326901929.21711302,-0.73110598,-0.42990044,-0.50120139
1326901929.26551843,-0.73139638,-0.42705640,-0.50148755
1326901929.31666875,-0.73124748,-0.42706180,-0.50110358
1326901929.36464190,-0.73232841,-0.42763010,-0.50228554
1326901929.41702127,-0.73107666,-0.42813438,-0.50046033
1326901929.46517467,-0.73158771,-0.42704293,-0.50262570
1326901929.51750350,-0.73008579,-0.42778516,-0.50091064
1326901929.56457877,-0.73199636,-0.42644340,-0.50302780
1326901929.61651397,-0.73137790,-0.42765048,-0.50123179
1326901929.66951561,-0.73141980,-0.42761958,-0.50424159
1326901929.72063279,-0.73018539,-0.42873403,-0.50053346
1326901929.76451421,-0.73155844,-0.42622173,-0.50200337
1326901929.81755042,-0.73151666,-0.42797840,-0.50374305
1326901929.86564398,-0.73201507,-0.42773905,-0.50352097
1326901929.91751719,-0.73172432,-0.42774853,-0.50287873
1326901929.96454048,-0.72965550,-0.42633510,-0.50440621
1326901930.01689649,-0.73019594,-0.42825958,-0.50066262
1326901930.06472397,-0.72995180,-0.42672476,-0.50066024
1326901930.11663389,-0.73172349,-0.42786679,-0.50287783
1326901930.16558695,-0.73278731,-0.42595804,-0.50344974
1326901930.21752000,-0.73073703,-0.42990187,-0.50143212
1326901930.26968598,-0.73221958,-0.42689630,-0.50479096
1326901930.31750345,-0.73101187,-0.42715597,-0.50372165
1326901930.36636996,-0.73033810,-0.42811441,-0.50317746
1326901930.41615534,-0.73042345,-0.42812112,-0.50243014
1326901930.46550894,-0.73180544,-0.42631578,-0.50414622
1326901930.51663947,-0.73159105,-0.42860064,-0.50061005
1326901930.56556988,-0.72988552,-0.42787260,-0.50415719
1326901930.61675477,-0.73082060,-0.42716944,-0.50258350
1326901930.66485453,-0.73127925,-0.42658332,-0.50160986
1326901930.71750474,-0.72997856,-0.42884564,-0.50139868
1326901930.76462698,-0.73051518,-0.42715877,-0.50394553
1326901930.81664586,-0.73111492,-0.42763174,-0.50334793
1326901930.86555743,-0.73151481,-0.42727011,-0.50362265
1326901930.91666198,-0.73161423,-0.42727411,-0.50312674
1326901930.96467066,-0.72977966,-0.42586195,-0.50429088
1326901931.01662230,-0.73189247,-0.42906159,-0.50150025
1326901931.06550789,-0.73162478,-0.42679965,-0.50325590
1326901931.11761928,-0.73070353,-0.42764124,-0.50282449
1326901931.16570306,-0.73034406,-0.42634165,-0.50306487
1326901931.21659684,-0.72965062,-0.42815351,-0.50000751
1326901931.26551557,-0.73206806,-0.42725655,-0.50440437
1326901931.31649709,-0.72968614,-0.42706084,-0.50277382
1326901931.36447334,-0.73108059,-0.42846504,-0.50283903
1326901931.42548966,-0.73088700,-0.42869225,-0.50395477
1326901931.46554208,-0.73147452,-0.42611960,-0.50049585
1326901931.51750016,-0.73070550,-0.42929441,-0.50306368
1326901931.56455302,-0.73253572,-0.42832226,-0.50379556
1326901931.61656713,-0.73155916,-0.42891520,-0.50461596
1326901931.66550040,-0.73091817,-0.42646515,-0.50196713
1326901931.71705198,-0.73140979,-0.42811686,-0.50185674
1326901931.76455498,-0.73137319,-0.42618820,-0.50550216
1326901931.81652784,-0.73007995,-0.42752713,-0.50304234
1326901931.86452079,-0.73123819,-0.42727688,-0.50323176
1326901931.91750431,-0.72987574,-0.42728391,-0.50391018
1326901931.96514273,-0.73118979,-0.42608207,-0.50449061
1326901932.01681852,-0.73284650,-0.42856812,-0.50255752
1326901932.06554508,-0.73210424,-0.42713153,-0.50503373
1326901932.11650705,-0.73183221,-0.42843667,-0.50488460
1326901932.16553354,-0.73078793,-0.42479053,-0.50397676
1326901932.21721721,-0.73110104,-0.42952412,-0.50333393
1326901932.26575923,-0.73051518,-0.42715877,-0.50394553
1326901932.31751704,-0.73022890,-0.42752174,-0.50342631
1326901932.36453843,-0.73153847,-0.42596638,-0.50388366
1326901932.41665554,-0.73068714,-0.42785764,-0.50482702
1326901932.46551466,-0.73141968,-0.42667472,-0.50412291
1326901932.51755834,-0.73155612,-0.42846626,-0.50223809
1326901932.56456017,-0.73158580,-0.42711556,-0.50713611
1326901932.61753654,-0.73047626,-0.42669374,-0.50319481
1326901932.66553879,-0.73093808,-0.42750141,-0.50471771
1326901932.71750379,-0.73266953,-0.42749295,-0.50380856
1326901932.76450396,-0.73091090,-0.42630258,-0.50635362
1326901932.81664968,-0.73051345,-0.42739534,-0.50394374
1326901932.86951351,-0.73132658,-0.42773250,-0.50486231
1326901932.91751146,-0.73191416,-0.42688563,-0.50615293
1326901932.96464252,-0.73099524,-0.42548269,-0.50548679
1326901933.01761222,-0.73171514,-0.42890844,-0.50512564
1326901933.06462932,-0.73110408,-0.42699739,-0.50761223
1326901933.11750197,-0.73135644,-0.42654571,-0.50524819
1326901933.16566181,-0.73099291,-0.42772722,-0.50572151
1326901933.21765494,-0.73161930,-0.42937621,-0.50574374
1326901933.26561975,-0.73163569,-0.42618412,-0.50564164
1326901933.31663513,-0.73226243,-0.42769200,-0.50792032
1326901933.36553073,-0.73118144,-0.42712373,-0.50673836
1326901933.41750097,-0.73140866,-0.42712635,-0.50624937
1326901933.46564460,-0.73129070,-0.42771640,-0.50648946
1326901933.51751590,-0.73251677,-0.42889348,-0.50579542
1326901933.56566334,-0.73075247,-0.42760900,-0.50596005
1326901933.61667252,-0.73152220,-0.42712766,-0.50600487
1326901933.66552019,-0.73063976,-0.42748940,-0.50620538
1326901933.72064471,-0.73248315,-0.42866367,-0.50516868
1326901933.76956248,-0.73040378,-0.42772469,-0.50656700
1326901933.81651711,-0.73191911,-0.42726195,-0.50402039
1326901933.86555529,-0.73152083,-0.42722312,-0.50825959
1326901933.91750288,-0.73102784,-0.42786160,-0.50409347
1326901933.96463251,-0.73139125,-0.42651618,-0.50813228
1326901934.01655626,-0.73177427,-0.42854288,-0.50613379
1326901934.06452489,-0.73045141,-0.42700696,-0.50732642
1326901934.11664963,-0.73233891,-0.42793658,-0.50704563
1326901934.16555834,-0.73108101,-0.42629313,-0.50711471
1326901934.21650386,-0.73263532,-0.42927110,-0.50341833
1326901934.26454401,-0.73192668,-0.42806438,-0.50652128
1326901934.31750584,-0.73062813,-0.42619240,-0.50583792
1326901934.36598873,-0.73105472,-0.42795166,-0.50685108
1326901934.41663456,-0.73157752,-0.42737627,-0.50475305
1326901934.46950793,-0.73106432,-0.42665064,-0.50686067
1326901934.52059197,-0.73274040,-0.42936921,-0.50530291
1326901934.56535935,-0.73093128,-0.42641681,-0.50672984
1326901934.61677408,-0.73150450,-0.42665860,-0.50563127
1326901934.66602492,-0.73106527,-0.42747721,-0.50698024
1326901934.71751404,-0.73002923,-0.42857686,-0.50453591
1326901934.76497865,-0.73126221,-0.42583206,-0.50574929
1326901934.81659174,-0.73201716,-0.42736140,-0.50577927
1326901934.86552000,-0.73136497,-0.42817473,-0.50786865
1326901934.91652822,-0.73161644,-0.42784131,-0.50550371
1326901934.96649218,-0.73109329,-0.42558214,-0.50724566
1326901935.01752949,-0.73146927,-0.43058583,-0.50322104
1326901935.06457758,-0.73137414,-0.42701480,-0.50562173
1326901935.11748981,-0.73125786,-0.42642343,-0.50574493
1326901935.16567898,-0.73079038,-0.42724746,-0.50659114
1326901935.21754479,-0.73152757,-0.43033853,-0.50422835
1326901935.26550913,-0.73167992,-0.42688435,-0.50651628
1326901935.32065558,-0.73122275,-0.42831987,-0.50535387
1326901935.36464047,-0.73090833,-0.42665741,-0.50635099
1326901935.41708183,-0.73204184,-0.42688426,-0.50615984
1326901935.46463943,-0.73027784,-0.42748949,-0.50656182
1326901935.51752281,-0.73246717,-0.42795804,-0.50479686
1326901935.56553531,-0.73104322,-0.42759952,-0.50660229
1326901935.61755919,-0.72991091,-0.42711329,-0.50905085
1326901935.66552711,-0.73071313,-0.42806602,-0.50758368
1326901935.71415138,-0.73395431,-0.42922649,-0.50649703
1326901935.76565194,-0.72975719,-0.42690632,-0.50628728
1326901935.81753182,-0.73045838,-0.42903644,-0.50543296
1326901935.86454034,-0.73111784,-0.42713583,-0.50560713
1326901935.91751647,-0.73079550,-0.42559296,-0.50647771
1326901935.96553922,-0.73150718,-0.42724863,-0.50575256
1326901936.01664209,-0.73337549,-0.42983544,-0.50533384
1326901936.06552839,-0.73094290,-0.42771381,-0.50709730
1326901936.11653113,-0.73108441,-0.42785084,-0.50509906
1326901936.16555381,-0.73130870,-0.42631859,-0.50437003
1326901936.22567511,-0.73068094,-0.42774072,-0.50470221
1326901936.26566076,-0.73060918,-0.42598271,-0.50320697
1326901936.31750107,-0.73271304,-0.42925632,-0.50480098
1326901936.36850262,-0.73307967,-0.42852375,-0.50670546
1326901936.41684866,-0.73205215,-0.42749578,-0.50415123
1326901936.46548510,-0.73098224,-0.42725679,-0.50547361
1326901936.51772451,-0.73321521,-0.43043357,-0.50481981
1326901936.56950521,-0.73078692,-0.42772055,-0.50658762
1326901936.61752510,-0.73134166,-0.42855641,-0.50523329
1326901936.66551185,-0.73235381,-0.42687076,-0.50717920
1326901936.71750951,-0.73084396,-0.42773262,-0.50533754
1326901936.76852274,-0.73089409,-0.42571524,-0.50598091
1326901936.81649089,-0.73124897,-0.42869216,-0.50359833
1326901936.86554074,-0.73012358,-0.42725971,-0.50605392
1326901936.91649437,-0.73160243,-0.42878887,-0.50537097
1326901936.96463537,-0.73098963,-0.42711437,-0.50785583
1326901937.01649547,-0.73187745,-0.42996350,-0.50587881
1326901937.06456470,-0.73076183,-0.42911974,-0.50858140
1326901937.11752653,-0.73218447,-0.42581707,-0.50630033
1326901937.16555929,-0.73145276,-0.42688173,-0.50700527
1326901937.21662927,-0.73074377,-0.42879176,-0.50595129
1326901937.26552200,-0.72965962,-0.42761061,-0.50690359
1326901937.31660581,-0.73105824,-0.42747858,-0.50685453
1326901937.36455560,-0.73148376,-0.42746639,-0.50762939
1326901937.41732407,-0.73138398,-0.42760348,-0.50586879
1326901937.46454525,-0.73277497,-0.42744997,-0.50794965
1326901937.51737761,-0.73222166,-0.42949432,-0.50514877
1326901937.56550527,-0.73065847,-0.42878506,-0.50669855
1326901937.61658955,-0.73109180,-0.42770839,-0.50748128
